Simultaneous Nadir Overpasses (SNOs) Predictions

Prediction of SNOs between AQUA and NPP Satellite Orbit:

Table of predicted SNOs for the next 14.0 days since TLE Epoch: 7/6/2014
Index Date (AQUA) Time (AQUA) Lat,Lon (AQUA) SZA (AQUA ) Date (NPP) Time (NPP) Lat,Lon (NPP) SZA (NPP ) Distance(km) Time Diff (sec)
1 07/08/2014 17:48:25 -54.11, -51.74 81.83 07/08/2014 17:47:54 -54.11, -51.74 81.79 0.44 31
2 07/08/2014 18:35:33 62.04, 120.72 90.30 07/08/2014 18:36:16 62.05, 120.74 90.24 1.01 43
3 07/11/2014 09:17:41 46.01,-106.94 106.44 07/11/2014 09:16:41 45.23,-107.27 107.32 90.30 60
4 07/11/2014 10:03:58 -57.35, 65.87 84.68 07/11/2014 10:03:57 -57.35, 65.88 84.68 0.45 1
5 07/11/2014 10:51:15 64.70,-121.22 87.96 07/11/2014 10:52:28 64.72,-121.13 87.85 4.34 73
6 07/14/2014 01:32:40 51.28, 11.07 101.69 07/14/2014 01:31:56 51.28, 11.07 101.74 0.41 44
7 07/14/2014 02:19:47 -59.61,-176.86 86.54 07/14/2014 02:20:17 -59.60,-176.87 86.57 0.67 30
8 07/16/2014 17:48:15 54.37, 128.41 99.07 07/16/2014 17:48:02 54.37, 128.40 99.09 0.78 13
9 07/16/2014 18:35:31 -62.12, -59.22 88.62 07/16/2014 18:36:32 -62.12, -59.22 88.70 0.44 61
10 07/19/2014 09:17:19 -47.19, 73.50 73.47 07/19/2014 09:16:24 -47.19, 73.49 73.38 1.17 55
11 07/19/2014 10:03:43 57.77,-113.86 96.18 07/19/2014 10:04:01 57.77,-113.85 96.15 0.32 18




NCC Satellite Simultaneous Nadir Overpasses (SNOs) Prediction Service
